This demonstration page uses our WeatherBlox Daily Observations layout. Learn more.

Left ArrowRight Arrow

Hourly Observations for March 18, 2019

Temp ( °F °C ) Dew Point ( °F °C ) Humidity (%) Winds ( mph kmh ) Pressure ( in mb ) Visibility ( mi km ) Precip ( " mm )
12:51 am 00:51 Clear 51 10.6 36 2.2 56 56 E 9 15 30.03 1017 10 16 N/A
1:51 am 01:51 Clear 49 9.4 37 2.8 64 64 ESE 7 11 30.03 1017 10 16 N/A
2:51 am 02:51 Clear 52 11.1 37 2.8 57 57 ESE 10 17 30.01 1016 10 16 N/A
3:51 am 03:51 Clear 50 10 36 2.2 59 59 ESE 10 17 30.01 1016 10 16 N/A
4:51 am 04:51 Clear 49 9.4 36 2.2 61 61 ESE 8 13 30.01 1016 10 16 N/A
5:51 am 05:51 Clear 46 7.8 36 2.2 68 68 SE 7 11 30.02 1017 10 16 N/A
6:51 am 06:51 Sunny 48 8.9 36 2.2 63 63 SE 14 22 30.05 1018 10 16 N/A
7:51 am 07:51 Sunny 54 12.2 36 2.2 51 51 ESE 15 24 30.07 1018 10 16 N/A
8:51 am 08:51 Sunny 57 13.9 35 1.7 44 44 SSE 13 20 30.09 1019 10 16 N/A
9:51 am 09:51 Sunny 61 16.1 35 1.7 38 38 SE 8 13 30.09 1019 10 16 N/A
10:51 am 10:51 Sunny 64 17.8 33 0.6 32 32 S 13 20 30.06 1018 10 16 N/A
11:51 am 11:51 Sunny 68 20 31 -0.6 25 25 undefined N/A 30.05 1018 10 16 N/A
12:51 pm 12:51 Sunny 71 21.7 30 -1.1 22 22 SSE 13 20 30.01 1016 10 16 N/A
1:51 pm 13:51 Sunny 71 21.7 30 -1.1 22 22 E 6 9 29.98 1015 10 16 N/A
2:51 pm 14:51 Partly Cloudy 72 22.2 30 -1.1 21 21 ESE 9 15 29.95 1014 10 16 N/A
3:51 pm 15:51 Sunny 72 22.2 30 -1.1 21 21 SSE 14 22 29.94 1014 10 16 N/A
4:51 pm 16:51 Sunny 71 21.7 27 -2.8 19 19 SSE 7 11 29.93 1014 10 16 N/A
5:51 pm 17:51 Sunny 70 21.1 27 -2.8 20 20 SSE 7 11 29.94 1014 10 16 N/A
6:51 pm 18:51 Clear 63 17.2 29 -1.7 28 28 ESE 6 9 29.95 1014 10 16 N/A
7:51 pm 19:51 Clear 59 15 31 -0.6 35 35 E 8 13 29.96 1015 10 16 N/A
8:51 pm 20:51 Clear 59 15 29 -1.7 32 32 ESE 7 11 29.98 1015 10 16 N/A
9:51 pm 21:51 Clear 55 12.8 32 undefined 42 42 SE 6 9 30.00 1016 10 16 N/A
10:51 pm 22:51 Clear 53 11.7 33 0.6 47 47 S 7 11 30.01 1016 10 16 N/A
11:51 pm 23:51 Clear 52 11.1 35 1.7 53 53 S 8 13 30.01 1016 10 16 N/A

Powered by AerisWeather